SCP
0 0 0 0 0 0 0 0 0 0 0 0 0 0 0 0 0 0 0 0 0 0 0 0 0 0 0 0 0 0 0 0 0 0 0 0 0 0 0 0 0 0 0
0 0 0 0 0 0 0 0 0 0 0 0 0 0 0 0 0 0 0 0 0 0 0 0 0 0 0 0 0 0 0 0 0 0 0 0 0 0 0 0 0 0 0
0 0 0 0 0 0 0 0 0 0 0 0 0 0 0 0 0 0 0 0 0 0 0 0 0 0 0 0 0 0 0 0 0 0 0 0 0 0 0 0 0 0 0
0 0 0 0 0 0 0 0 0 0 0 0 0 0 0 0 0 0 0 0 0 0 0 0 0 0 0 0 0 0 0 0 0 0 0 0 0 0 0 0 0 0 0
0 0 0 0 0 0 0 0 0 0 0 0 0 0 0 0 0 0 0 0 0 0 0 0 0 0 0 0 0 0 0 0 0 0 0 0 0 0 0 0 0 0 0
0 0 0 0 0 0 0 0 0 0 0 0 0 0 0 0 0 0 0 0 0 0 0 0 0 0 0 0 0 0 0 0 0 0 0 0 0 0 0 0 0 0 0
0 0 0 0 0 0 0 0 0 0 0 0 0 0 0 0 0 0 0 0 0 0 0 0 0 0 0 0 0 0 0 0 0 0 0 0 0 0 0 0 0 0 0
0 0 0 0 0 0 0 0 0 0 0 0 0 0 0 0 0 0 0 0 0 0 0 0 0 0 0 0 0 0 0 0 0 0 0 0 0 0 0 0 0 0 0
0 0 0 0 0 0 0 0 0 0 0 0 0 0 0 0 0 0 0 0 0 0 0 0 0 0 0 0 0 0 0 0 0 0 0 0 0 0 0 0 0 0 0
0 0 0 0 0 0 0 0 0 0 0 0 0 0 0 0 0 0 0 0 0 0 0 0 0 0 0 0 0 0 0 0 0 0 0 0 0 0 0 0 0 0 0
0 0 0 0 0 0 0 0 0 0 0 0 0 0 0 0 0 0 0 0 0 0 0 0 0 0 0 0 0 0 0 0 0 0 0 0 0 0 0 0 0 0 0
0 0 0 0 0 0 0 0 0 0 0 0 0 0 0 0 0 0 0 0 0 0 0 0 0 0 0 0 0 0 0 0 0 0 0 0 0 0 0 0 0 0 0
0 0 0 0 0 0 0 0 0 0 0 0 0 0 0 0 0 0 0 0 0 0 0 0 0 0 0 0 0 0 0 0 0 0 0 0 0 0 0 0 0 0 0
0 0 0 0 0 0 0 0 0 0 0 0 0 0 0 0 0 0 0 0 0 0 0 0 0 0 0 0 0 0 0 0 0 0 0 0 0 0 0 0 0 0 0
0 0 0 0 0 0 0 0 0 0 0 0 0 0 0 0 0 0 0 0 0 0 0 0 0 0 0 0 0 0 0 0 0 0 0 0 0 0 0 0 0 0 0
0 0 0 0 0 0 0 0 0 0 0 0 0 0 0 0 0 0 0 0 0 0 0 0 0 0 0 0 0 0 0 0 0 0 0 0 0 0 0 0 0 0 0
0 0 0 0 0 0 0 0 0 0 0 0 0 0 0 0 0 0 0 0 0 0 0 0 0 0 0 0 0 0 0 0 0 0 0 0 0 0 0 0 0 0 0
0 0 0 0 0 0 0 0 0 0 0 0 0 0 0 0 0 0 0 0 0 0 0 0 0 0 0 0 0 0 0 0 0 0 0 0 0 0 0 0 0 0 0
0 0 0 0 0 0 0 0 0 0 0 0 0 0 0 0 0 0 0 0 0 0 0 0 0 0 0 0 0 0 0 0 0 0 0 0 0 0 0 0 0 0 0
0 0 0 0 0 0 0 0 0 0 0 0 0 0 0 0 0 0 0 0 0 0 0 0 0 0 0 0 0 0 0 0 0 0 0 0 0 0 0 0 0 0 0
0 0 0 0 0 0 0 0 0 0 0 0 0 0 0 0 0 0 0 0 0 0 0 0 0 0 0 0 0 0 0 0 0 0 0 0 0 0 0 0 0 0 0
0 0 0 0 0 0 0 0 0 0 0 0 0 0 0 0 0 0 0 0 0 0 0 0 0 0 0 0 0 0 0 0 0 0 0 0 0 0 0 0 0 0 0
1 0 0 0 0 0 0 0 0 0 0 0 0 0 0 0 0 0 0 0 0 0 0 0 0 0 0 0 0 0 0 0 0 0 0 0 0 0 0 0 0 0 0
1 1 0 0 0 0 0 0 0 0 0 0 0 0 0 0 0 0 0 0 0 0 0 0 0 0 0 0 0 0 0 0 0 0 0 0 0 0 0 0 0 0 0
1 1 0 0 0 0 0 0 0 0 0 0 0 0 0 0 0 0 0 0 0 0 0 0 0 0 0 0 0 0 0 0 0 0 0 0 0 0 0 0 0 0 0
1 1 0 0 0 0 0 0 0 0 0 0 0 0 0 0 0 0 0 0 0 0 0 0 0 0 0 0 0 0 0 0 0 0 0 0 0 0 0 0 0 0 0
Wind_Speed
2 2 2 1 2 3 3 3 2 3 3 3 2 2 2 1 1 2 5 10 9 8 9 9 10 10 10 9 9 9 9 9 8 8 8 8 8 8 8 8 7 7 7
2 2 2 1 1 2 1 1 2 2 2 2 2 2 2 2 2 2 3 8 10 9 8 9 9 10 10 10 10 10 9 10 9 9 9 9 9 9 9 8 8 8 8
2 1 2 2 1 1 2 2 2 2 2 3 2 2 2 2 2 3 3 3 6 10 9 8 9 10 10 11 11 11 11 10 10 10 10 10 9 9 9 9 9 9 9
2 2 2 2 2 2 2 2 2 2 1 2 2 2 2 2 3 4 4 4 3 4 9 11 10 10 11 11 11 11 11 11 11 11 11 11 11 10 10 10 10 10 9
3 3 2 1 3 3 2 3 2 2 2 2 2 3 3 3 3 5 4 4 4 4 4 8 11 10 11 11 11 11 11 11 11 11 12 12 12 11 11 11 11 10 10
4 3 3 2 3 2 2 2 1 2 2 2 3 2 2 3 4 3 5 4 4 6 6 5 7 8 10 10 10 10 11 11 11 11 11 11 11 12 12 12 12 12 11
3 4 3 3 3 3 3 3 3 3 3 2 3 3 3 4 4 3 4 4 4 4 4 4 5 4 5 10 10 10 10 11 11 12 12 12 12 12 11 11 12 11 11
3 4 3 3 3 3 4 4 4 4 3 3 3 3 4 4 4 4 3 4 4 3 4 4 3 3 4 3 5 9 9 9 10 10 11 11 11 11 12 12 12 11 11
4 4 4 4 4 4 3 4 4 5 4 3 3 3 3 2 2 3 3 3 2 2 2 2 3 3 3 3 3 6 8 8 9 10 9 9 10 11 11 12 12 12 11
4 4 4 5 5 4 4 5 5 4 5 4 4 4 5 3 3 2 3 3 3 2 2 2 2 2 3 3 1 1 4 5 7 8 9 9 8 9 10 11 11 11 10
4 4 4 4 4 5 4 5 3 4 4 5 4 4 4 4 5 4 3 2 2 2 2 2 2 2 2 2 2 2 4 3 3 4 5 6 7 7 7 8 8 8 8
2 4 4 4 4 4 4 4 4 5 4 5 5 4 4 4 4 4 4 4 3 2 2 2 2 2 2 1 1 5 4 3 2 2 3 3 4 5 5 6 6 6 6
2 2 3 3 3 4 4 4 4 5 5 5 5 4 4 4 4 4 4 4 3 2 2 2 2 2 1 1 1 5 4 3 2 1 1 1 1 2 2 2 3 3 4
2 2 2 2 3 3 4 3 4 4 4 4 4 4 4 4 4 4 3 3 3 3 3 2 1 1 0 0 3 1 2 4 3 2 2 2 2 2 2 3 3 3 3
2 1 2 2 2 2 3 3 3 3 3 4 3 3 4 3 4 3 3 4 4 4 3 3 2 1 1 0 2 1 1 5 4 3 3 3 3 3 4 4 4 3 3
1 1 1 1 1 1 2 2 2 2 2 2 2 3 3 3 3 3 3 3 3 3 3 1 1 1 1 1 3 1 2 6 5 4 4 4 4 4 4 5 5 5 4
1 1 1 1 1 1 1 1 2 2 2 2 3 3 3 4 3 3 2 2 2 2 3 1 1 2 2 1 2 1 1 2 3 5 5 5 4 5 5 5 5 5 5
0 1 1 1 1 1 1 1 2 2 2 2 3 3 3 2 2 2 2 2 2 2 3 3 2 2 2 2 2 2 1 1 2 6 6 5 5 5 5 5 5 5 5
0 1 1 1 1 1 1 1 2 2 2 2 2 2 2 2 2 1 2 2 2 2 3 3 3 2 2 2 2 2 2 1 2 5 6 6 6 6 6 5 5 5 4
1 1 1 1 1 2 2 2 2 2 2 2 3 3 2 2 2 1 1 1 1 2 3 2 2 3 2 2 2 2 2 2 1 2 4 4 6 7 7 6 6 5 4
2 2 1 1 1 1 3 3 2 1 2 2 2 2 3 3 4 3 2 1 1 2 2 3 2 2 3 3 2 2 2 2 2 1 2 2 4 3 5 6 5 5 4
2 2 2 2 2 3 5 4 3 1 1 1 2 2 2 2 3 3 3 3 3 1 1 2 2 2 2 2 2 2 2 2 2 2 1 2 2 2 2 3 5 5 5
2 2 1 2 2 4 4 4 4 2 1 2 2 2 1 2 1 1 3 3 3 3 3 2 0 0 1 1 2 3 2 2 1 2 2 2 2 2 2 4 6 5 4
2 2 1 2 3 4 5 3 3 0 2 2 2 2 2 2 3 2 1 3 3 2 2 1 2 2 1 0 1 1 1 2 2 2 2 2 2 2 2 3 7 6 5
2 2 2 2 2 3 5 3 4 1 2 2 3 4 3 3 5 4 1 1 2 2 4 3 3 3 3 2 2 1 2 2 2 2 2 2 2 2 2 3 6 8 7
2 2 3 2 3 3 4 3 4 0 2 2 2 3 6 4 4 4 1 1 1 1 1 3 2 2 2 2 2 2 1 2 1 1 2 2 1 1 2 2 3 5 6
Wind_Direction
125 122 124 139 159 139 157 167 158 153 171 173 180 172 173 142 149 151 134 156 174 184 189 193 195 197 197 196 198 197 198 198 195 196 198 200 199 199 201 201 202 204 206
138 156 155 171 160 161 152 174 151 173 188 174 188 187 203 179 163 179 167 162 176 185 194 201 202 202 202 203 205 204 205 207 207 206 207 209 208 209 210 210 210 212 214
166 201 181 193 172 169 171 199 175 190 197 192 193 200 209 211 192 194 198 191 177 182 194 203 207 208 208 211 211 210 210 210 212 213 214 214 214 215 216 214 215 217 219
205 224 218 202 192 210 204 188 210 195 196 224 211 216 209 199 203 207 211 202 205 192 187 198 207 211 213 215 217 217 216 215 215 217 217 217 218 219 221 222 222 223 224
218 221 228 211 215 212 219 222 175 215 204 223 222 207 216 219 208 211 215 214 209 216 206 181 196 208 216 219 220 221 219 218 218 220 222 223 223 222 223 225 226 227 228
224 233 218 208 238 219 220 237 231 236 247 241 253 229 230 222 224 216 221 215 209 214 216 209 199 199 209 220 223 222 223 222 222 222 225 228 229 227 227 227 227 228 229
223 233 247 200 237 232 235 228 235 226 231 227 239 230 220 221 218 219 231 237 223 221 220 216 228 223 196 202 214 220 225 226 226 225 225 227 230 226 225 224 227 228 231
240 227 239 237 228 238 233 240 237 251 241 218 242 248 228 204 201 211 213 221 228 220 215 212 216 223 243 215 180 204 220 229 229 227 225 225 227 225 223 224 227 228 232
243 253 238 245 239 240 233 236 236 240 251 239 234 253 262 242 184 183 201 212 216 228 234 219 217 223 234 239 213 191 208 225 233 234 232 226 226 224 224 225 226 227 229
249 243 241 239 241 244 238 242 234 246 248 253 240 243 264 294 267 214 196 186 193 215 240 250 245 224 234 244 225 140 182 211 230 237 234 228 228 222 221 223 223 225 225
244 247 243 243 240 244 242 246 250 249 249 255 257 251 246 241 247 254 240 213 202 213 220 242 252 255 243 243 237 164 151 176 200 218 226 235 231 225 219 215 215 219 217
239 240 239 241 242 246 242 242 246 242 252 259 259 255 251 247 239 241 246 236 228 219 209 237 245 245 240 231 137 90 107 127 161 197 220 230 229 223 218 212 211 213 214
254 256 259 242 246 246 246 246 240 253 251 253 255 257 252 253 260 252 247 249 254 242 217 227 229 252 253 247 88 92 109 115 117 123 146 182 207 186 186 184 193 193 188
300 314 275 255 252 252 252 245 251 247 248 252 255 259 258 254 256 250 245 244 244 241 226 223 197 184 299 23 60 91 96 98 98 97 108 125 139 140 145 141 141 144 152
283 270 269 277 276 270 267 258 260 261 254 252 256 249 257 256 244 244 243 239 243 251 242 201 187 158 161 133 109 118 84 94 102 107 118 125 126 124 129 128 127 122 124
315 302 286 291 292 291 271 260 255 260 260 260 273 278 271 272 260 248 244 243 246 253 258 237 179 173 173 167 121 122 98 112 110 117 114 113 117 120 126 130 127 124 125
338 328 304 301 313 320 307 280 275 267 269 276 277 272 273 280 269 252 236 231 231 235 242 244 168 147 164 202 137 147 144 143 116 119 116 113 117 122 123 122 122 125 124
343 42 358 337 339 17 358 331 306 308 299 299 300 301 293 279 266 257 237 224 230 229 219 216 196 171 178 173 152 182 135 111 102 112 118 116 116 119 117 114 113 114 116
78 80 70 32 20 33 29 8 347 335 331 329 324 319 314 306 286 270 245 232 223 208 208 204 191 164 168 160 167 153 135 134 134 128 129 127 123 116 113 112 112 109 113
114 93 86 61 35 33 28 14 357 354 350 353 353 348 346 336 324 303 262 242 238 230 208 200 187 164 157 165 181 178 168 161 152 126 108 115 123 127 124 124 123 120 116
125 103 79 67 42 36 30 9 345 8 1 0 11 11 26 33 26 12 349 323 236 229 212 192 189 182 173 174 193 199 168 150 134 127 138 147 150 150 147 152 149 143 139
111 98 78 65 53 43 36 12 340 10 9 9 19 22 55 72 79 78 53 36 11 283 228 206 191 190 177 185 199 201 172 177 167 143 189 174 167 159 157 140 132 150 162
125 118 109 88 65 50 40 25 355 345 19 28 22 8 17 57 65 93 121 129 79 36 3 314 328 287 200 199 209 198 192 208 198 151 197 188 179 177 160 120 139 159 172
137 131 115 96 79 55 43 28 342 70 56 51 41 28 33 36 31 10 85 97 94 78 40 9 17 343 358 0 226 216 170 159 158 154 213 223 181 184 170 150 154 167 184
145 134 111 98 84 68 42 17 332 103 88 69 57 45 28 43 14 347 25 97 106 115 100 78 48 45 44 24 316 225 179 187 186 159 196 247 203 199 192 184 165 178 190
146 133 112 104 93 79 55 23 329 115 89 83 79 76 53 27 19 355 13 87 87 74 97 124 129 149 146 140 188 263 261 246 241 162 145 249 216 210 212 195 185 184 196